Weather Roundup
Issued by NWS

Home | Current Version | Previous Version | Text Only | Print | Product List | Glossary On
Versions: 1 2 3 4 5 6 7 8 9 10 11 12 13 14 15 16 17 18 19 20 21 22 23 24 25 26 27 28 29 30 31 32 33 34 35 36 37 38 39 40 41 42 43 44 45 46 47 48 49 50
000
NZUS93 KARX 151359
HRRWXR

CURRENT HOURLY OBSERVATIONS ACROSS
MUCH OF THE UPPER MISSISSIPPI VALLEY
NATIONAL WEATHER SERVICE LA CROSSE WI
900 AM CDT MON SEP 15 2014


...SOUTHEAST MINNESOTA...


CITY           SKY/WX    TMP DP  RH WIND       PRES   REMARKS
ROCHESTER      LGT RAIN  49  46  90 N9        30.19R
ROCHESTER/MAYO CLOUDY    49  47  95 N7        30.19F
WINONA         RAIN      52  50  93 NW6       30.20R
AUSTIN         LGT RAIN  48  46  93 N5        30.19R
ALBERT LEA     LGT RAIN  50  48  93 N6        30.20R
DODGE CENTER   LGT RAIN  48  46  93 N5        30.19F
PRESTON        LGT RAIN  48  48 100 N8        30.18R
OWATONNA       LGT RAIN  52  48  87 NW3       30.20S
FARIBAULT      CLOUDY    52  48  87 CALM      30.20S
$$

...ELSEWHERE IN MINNESOTA...


CITY           SKY/WX    TMP DP  RH WIND       PRES   REMARKS
MINNEAPOLIS    CLOUDY    51  48  89 NW5       30.20S
INTNL FALLS    SUNNY     46  42  86 W5        30.17R
DULUTH         MOSUNNY   48  42  80 NW9       30.17R
RED WING       LGT RAIN  50  48  93 W3        30.19R
REDWOOD FALLS  PTSUNNY   50  48  93 NW5       30.22S
MANKATO        CLOUDY    50  45  81 NW8       30.21S
WORTHINGTON    CLOUDY    48  46  93 N10       30.23R
FAIRMONT       CLOUDY    48  45  87 N6        30.21S
$$

...SOUTHWEST WISCONSIN...


CITY           SKY/WX    TMP DP  RH WIND       PRES   REMARKS
LA CROSSE      RAIN      52  50  93 N8        30.16R FOG
PRAIRIE DU CHI CLOUDY    54  48  81 E3        30.12S
BOSCOBEL       CLOUDY    54  50  86 CALM      30.13F
LONE ROCK      NOT AVBL
PLATTEVILLE    CLOUDY    54  50  87 CALM      30.12S
FORT MC COY    RAIN      50  49  97 CALM      30.16R
VIROQUA        CLOUDY    50  50 100 NW3       30.14S
WIS DELLS      DRIZZLE   52  48  86 CALM      30.14R
$$

...ELSEWHERE IN WISCONSIN...


CITY           SKY/WX    TMP DP  RH WIND       PRES   REMARKS
MILWAUKEE      LGT RAIN  56  49  77 CALM      30.13F
MADISON        LGT RAIN  53  51  93 N3        30.13F
GREEN BAY      CLOUDY    53  49  86 CALM      30.12F
EAU CLAIRE     CLOUDY    51  45  79 W5        30.17R
BLACK RVR FLS  LGT RAIN  51  51 100 NW3       30.16S
MEDFORD        MOSUNNY   48  44  86 N5        30.15R
WAUSAU         PTSUNNY   50  46  86 W3        30.14R
WIS RAPIDS     LGT RAIN  51  49  92 NW5       30.16S
MARSHFIELD     CLOUDY    52  46  80 CALM      30.14S
RICE LAKE      CLOUDY    46  44  93 CALM      30.19S
$$

...NORTHEAST IOWA...


CITY           SKY/WX    TMP DP  RH WIND       PRES   REMARKS
WATERLOO       CLOUDY    54  50  86 NE6       30.11R
DUBUQUE        MOSUNNY   57  50  77 CALM      30.11F
DECORAH        CLOUDY    50  48  93 N7        30.13S
MASON CITY     RAIN      50  49  96 N9        30.19S FOG
CHARLES CITY   HVY RAIN  50  48  93 N8G15     30.16R
OELWEIN        CLOUDY    54  50  87 NE9G16    30.11S
$$

...ELSEWHERE IN IOWA...


CITY           SKY/WX    TMP DP  RH WIND       PRES   REMARKS
DES MOINES     CLOUDY    62  58  86 NE7       30.07F
IOWA CITY      CLOUDY    57  55  93 CALM      30.09F
FORT DODGE     CLOUDY    50  46  87 N7        30.19R
MARSHALLTOWN   CLOUDY    56  52  86 NE5       30.10R
CEDAR RAPIDS   MOSUNNY   57  55  93 S5        30.09R
$$

...NORTHERN ILLINOIS...


CITY           SKY/WX    TMP DP  RH WIND       PRES   REMARKS
CHICAGO-OHARE  CLOUDY    57  47  69 S6        30.14S
DUPAGE         CLOUDY    56  49  77 S7        30.12S
CHICAGO-MIDWAY CLOUDY    57  50  77 SW9       30.16R
MOLINE         CLOUDY    56  52  86 E6        30.09F
ROCKFORD       CLOUDY    54  49  83 S5        30.15S
STERLING       CLOUDY    54  50  87 S5        30.11F
PEORIA         LGT RAIN  57  52  83 SE7       30.11S
$$

NOTE: "FAIR" INDICATES FEW OR NO CLOUDS BELOW 12,000 FEET WITH NO
SIGNIFICANT WEATHER AND/OR OBSTRUCTIONS TO VISIBILITY. WIND
SPEEDS ARE IN MILES-PER-HOUR.



USA.gov is the U.S. government's official web portal to all federal, state and local government web resources and services.